Location: Poughquag
(41.6090°N, 73.6820°W)
Time: 12:44:48
(UTC-04:00)

Vanguard 1 - Pass Details

Date: 31 May 2020
Orbit: 650 x 3833 km, 34.2° (Epoch: 07 July)

Event Time Altitude Azimuth Distance (km) Brightness Sun altitude
Rises 08:06:48 0° 255° (WSW) 6,551 13.7 28.0°
Reaches altitude 10° 08:10:34 10° 253° (WSW) 5,860 13.6 28.7°
Maximum altitude 08:30:43 70° 175° (S) 3,932 13.6 32.5°
Drops below altitude 10° 08:53:26 10° 98° (E) 6,484 15.6 36.7°
Sets 08:57:53 0° 96° (E) 7,242 15.4 37.6°
